Home   Weather   Ajmān   Past weeks

Flag for United Arab Emirates Past Weather in Ajmān, Ajman, United Arab Emirates — Yesterday and Last 2 Weeks

Now
84 °F

Clear.


Feels Like: 96 °F
Forecast: 89 / 100 °F
Wind: 3 mph from Southeast

Location: Sharjah International Airport

Current Time: Sep 28, 2016 at 4:13:23 AM

Latest Report: Sep 28, 2016 at 3:00 AM


Visibility: 4 mi

Pressure: 29.74 "Hg

Humidity: 84%

Dew Point: 79 °F

Location of AjmānLocation

Past Weather in Ajmān — Graph

°F

Ajmān Temperature Yesterday

Maximum temperature yesterday: 100 °F (at 12:00 PM)
Minimum temperature yesterday: 81 °F (at 5:00 AM)
Average temperature yesterday: 90 °F

High & Low Weather Summary for the Past Weeks

 TemperatureHumidityPressure
High106 °F (Sep 13, 1:00 PM)94% (Sep 13, 7:00 AM)29.83 "Hg (Sep 13, 7:00 AM)
Low79 °F (Sep 19, 6:00 AM)21% (Sep 19, 1:00 PM)29.56 "Hg (Sep 24, 5:00 PM)
Average91 °F63%29.68 "Hg
* Reported Sep 13 3:00 AM — Sep 28 3:00 AM, Ajmān, Weather by CustomWeather, © 2016

Note: Actual official high and low records may vary slightly from our data, if they occured in-between our weather recording intervals... More about our weather records

Advertising

Ajmān Weather History for the Previous 24 Hours

Scroll right to see more
 ConditionsComfort  
Time TempWeatherWind HumidityBarometerVisibility
3:00 AM
Wed, Sep 28
84 °FClear.3 mph84%29.74 "Hg4 mi
2:00 AM82 °FClear.5 mph89%29.77 "Hg5 mi
1:00 AM84 °FClear.3 mph84%29.77 "Hg5 mi
12:00 AM86 °FClear.3 mph79%29.77 "Hg5 mi
11:00 PM
Tue, Sep 27
86 °FClear.2 mph79%29.77 "Hg10 mi
10:00 PM88 °FClear.2 mph79%29.80 "Hg10 mi
9:00 PM90 °FClear.2 mph71%29.80 "Hg10 mi
8:00 PM90 °FClear.6 mph67%29.77 "Hg10 mi
7:00 PM93 °FClear.7 mph59%29.77 "Hg10 mi
6:00 PM93 °FSunny.9 mph59%29.74 "Hg10 mi
5:00 PM95 °FSunny.15 mph56%29.74 "Hg10 mi
4:00 PM97 °FSunny.15 mph56%29.74 "Hg10 mi
3:00 PM97 °FSunny.14 mph50%29.74 "Hg10 mi
2:00 PM99 °FSunny.15 mph47%29.74 "Hg10 mi
1:00 PM100 °FSunny.2 mph42%29.77 "Hg10 mi
12:00 PM100 °FPassing clouds.7 mph35%29.80 "HgN/A
11:00 AM97 °FSunny.9 mph39%29.83 "Hg10 mi
10:00 AM93 °FSunny.13 mph44%29.83 "Hg10 mi
9:00 AM90 °FSunny.12 mph52%29.83 "Hg10 mi
8:00 AM86 °FClear.6 mph84%29.83 "Hg4 mi
7:00 AM81 °FHaze.5 mph89%29.80 "Hg2 mi
6:00 AM82 °FClear.5 mph84%29.77 "Hg4 mi
5:00 AM81 °FPassing clouds.6 mph89%29.74 "Hg4 mi
4:00 AM82 °FClear.3 mph89%29.74 "Hg4 mi
Weather by CustomWeather, © 2016

See weather overviewHow to use our weather pages